Wind_Speed
81 83 87 89 91 95 93 94 96 90 72 61 51 45 38 35 37 37 33 34 34 35 34 32 25 16 7 3 10 16 23 31 40 49 60 76 89 99 106 103 99 94 99 100 99 97 94 95 88 91 93 86 79 75
80 82 87 88 91 95 93 94 92 82 69 53 45 37 35 31 28 29 31 32 31 29 30 30 29 24 16 9 6 11 15 24 32 41 51 60 77 90 104 104 101 94 88 97 101 97 96 97 90 91 89 85 82 78
79 80 86 87 93 92 90 92 87 72 60 46 39 33 31 28 24 22 24 25 28 27 28 28 28 28 23 17 11 6 9 15 24 31 42 52 65 78 94 101 102 100 94 91 90 91 92 92 84 87 88 88 85 82
77 81 84 87 92 89 90 89 81 66 53 41 35 33 28 25 19 15 18 23 24 25 28 27 31 32 31 28 21 13 8 9 14 22 32 41 52 66 82 95 100 101 97 90 84 88 95 94 87 86 86 90 89 88
77 81 83 87 88 86 89 86 69 62 47 37 31 28 25 23 20 14 17 19 20 23 27 26 28 31 35 34 29 22 16 12 11 15 23 32 41 55 70 86 97 102 102 97 92 89 88 96 94 91 90 94 98 96
76 80 82 86 83 85 84 76 61 57 40 31 26 26 19 21 20 15 16 19 20 26 26 31 31 33 38 37 35 31 26 19 13 13 17 21 30 42 57 75 89 97 102 101 96 96 87 87 90 88 90 93 96 96
77 79 82 83 80 81 77 60 57 46 32 24 22 21 23 23 20 17 16 20 23 25 29 31 26 30 39 41 35 33 30 28 22 14 12 13 18 27 41 60 78 92 98 99 100 100 90 84 87 94 96 95 91 93
77 80 83 79 79 76 61 53 43 31 23 18 18 22 23 19 17 18 19 22 22 25 24 24 28 30 31 36 33 34 34 35 37 36 28 19 13 15 28 41 59 78 91 98 101 96 97 96 89 90 93 95 93 94
78 80 79 78 76 69 57 45 31 20 14 13 14 16 18 16 19 21 19 22 20 22 17 16 30 31 34 37 34 33 44 43 42 41 35 30 23 13 13 24 39 56 74 85 87 90 93 90 86 83 88 90 93 95
76 76 77 76 74 65 48 36 21 12 7 7 7 7 8 13 14 23 22 22 16 15 9 17 24 27 31 32 32 36 35 34 36 34 33 32 30 19 15 9 17 31 45 58 71 84 88 89 86 84 82 84 86 90
71 72 74 74 66 55 40 29 16 9 4 4 3 6 5 9 13 15 12 9 6 13 7 6 17 20 25 26 31 33 32 31 32 31 29 32 37 35 31 23 13 17 22 32 44 58 76 86 86 83 79 78 82 86
67 69 70 65 57 46 34 24 12 7 3 3 5 10 5 7 9 3 5 4 5 5 11 8 8 17 21 21 23 29 28 26 27 30 27 32 35 35 33 34 29 20 16 22 30 39 50 66 78 82 79 78 81 84
64 67 63 54 48 38 25 22 12 10 7 7 11 10 11 4 4 3 5 8 8 14 12 16 11 12 14 14 16 19 27 23 26 26 26 27 33 31 30 30 36 32 31 27 26 32 40 51 65 76 82 82 81 83
61 60 50 45 41 30 23 18 15 14 11 12 14 18 18 12 12 13 11 14 16 16 13 18 20 19 19 15 13 19 24 26 20 18 22 25 31 30 26 30 29 31 31 34 38 33 36 40 56 70 80 85 87 82
56 47 40 37 34 28 23 20 19 15 12 12 14 16 17 17 17 17 17 16 20 23 23 21 21 20 21 21 19 20 22 27 26 26 25 25 35 33 27 30 25 35 35 43 38 39 39 42 49 59 72 86 89 88
45 39 34 30 29 27 23 20 17 16 14 14 12 14 17 18 19 22 26 26 25 26 28 30 31 29 28 28 28 28 29 32 31 28 27 34 37 40 35 29 42 36 42 41 38 44 47 49 51 60 60 72 79 89
38 34 31 29 28 27 24 21 17 13 13 12 12 13 14 13 14 15 18 25 29 31 31 34 36 37 34 37 39 37 36 34 33 35 35 31 38 36 38 38 49 51 51 48 49 51 53 59 59 65 70 67 75 79
32 28 27 28 27 26 24 22 19 18 18 17 16 15 14 14 15 15 15 17 18 18 21 28 33 37 39 40 39 37 42 42 42 38 35 35 40 38 40 42 44 55 53 55 55 56 56 63 69 74 78 84 85 91
26 25 25 26 27 27 26 24 22 22 21 22 22 23 23 23 22 22 21 20 18 18 19 21 23 27 29 31 32 33 35 41 46 48 47 42 41 40 43 50 53 50 52 62 63 70 65 65 70 78 83 87 99 101
24 24 26 27 29 29 28 27 26 25 25 25 24 23 23 25 27 26 25 24 23 24 25 26 27 27 27 26 27 29 32 34 34 35 42 49 51 45 44 42 43 47 52 58 63 69 74 74 69 76 82 94 96 105
25 25 26 26 27 28 31 33 31 29 27 25 27 27 26 27 28 28 28 29 29 30 30 28 25 21 21 21 22 24 26 29 34 36 35 37 41 49 52 52 51 50 48 52 60 63 67 76 82 82 81 82 93 104
26 27 27 29 30 30 30 32 34 32 30 28 27 27 27 27 28 28 29 29 29 31 31 29 28 27 26 26 26 26 24 22 25 30 34 35 35 37 42 46 52 57 57 55 55 55 60 68 74 77 78 86 90 91
29 30 30 30 32 33 34 35 35 33 33 32 31 30 29 29 29 30 31 31 32 32 32 32 32 30 29 29 29 31 31 30 26 23 26 33 38 38 37 40 44 48 54 58 58 60 61 61 61 63 68 72 77 83
30 32 32 29 32 34 35 35 34 35 36 35 34 33 31 31 30 31 32 32 33 34 33 33 32 29 29 31 31 30 32 34 33 31 29 27 29 37 41 42 41 42 46 50 52 55 59 62 63 65 66 67 67 68
30 31 30 28 30 32 33 33 34 36 38 38 37 35 33 32 32 33 35 37 37 36 36 36 35 34 33 32 32 31 30 27 28 31 32 32 31 30 32 36 39 41 40 42 45 48 52 54 57 60 65 67 69 70
28 28 26 28 29 30 29 32 35 38 41 43 42 38 35 34 35 36 37 39 39 37 38 38 35 35 36 35 34 31 28 26 26 27 29 31 33 34 34 33 34 38 39 40 40 41 43 46 49 51 54 56 57 59
24 25 26 26 27 26 30 33 36 39 42 45 43 38 35 34 34 34 37 40 41 41 42 41 40 40 37 35 34 34 32 29 25 25 25 25 27 28 31 34 35 34 32 33 35 38 39 40 40 41 44 46 48 50
23 24 24 22 23 27 30 34 38 40 42 45 46 42 37 35 36 36 37 39 41 42 42 41 42 42 41 39 36 30 26 27 29 29 27 25 22 21 23 26 29 31 32 31 31 30 32 34 36 38 39 40 42 43
21 19 19 22 26 30 34 36 39 42 46 49 49 45 39 35 36 37 39 42 44 45 45 45 45 43 41 36 38 42 36 31 29 28 26 24 24 23 22 21 20 22 24 26 28 30 30 30 30 30 32 34 36 37
19 19 22 25 29 32 36 37 40 44 48 52 53 49 42 40 41 40 42 47 48 48 48 48 46 42 40 38 35 33 33 30 29 28 27 26 26 25 24 23 22 20 20 21 22 23 25 26 27 28 28 29 29 30
15 18 24 29 31 33 37 38 42 44 47 53 54 50 48 46 47 49 49 51 51 51 48 45 43 41 42 41 37 34 32 31 30 28 26 25 24 24 24 24 23 21 20 19 19 20 20 21 22 24 25 26 27 28
17 21 27 31 33 34 37 41 44 44 49 53 52 49 50 49 49 49 49 49 50 49 48 47 43 41 40 38 38 37 36 33 31 29 27 26 25 24 23 22 21 20 20 20 19 18 18 18 18 19 20 21 21 22
20 24 28 30 31 33 39 41 45 48 52 55 53 51 49 47 46 49 50 50 49 47 46 44 42 42 40 39 37 37 36 33 30 29 27 25 23 22 21 19 18 17 16 16 17 16 16 15 15 16 16 16 17 18
Wind_Direction
327 332 335 334 336 335 338 340 339 341 340 339 338 340 347 358 6 2 10 18 23 23 21 16 20 26 32 159 196 202 206 207 209 210 212 212 208 206 211 214 215 216 217 216 216 217 216 217 213 212 211 211 210 212
327 331 334 335 334 335 338 339 339 341 340 340 338 341 349 1 11 5 12 25 35 35 34 38 38 40 51 82 151 188 196 199 203 207 207 211 211 205 209 212 214 217 218 219 218 217 217 220 214 212 211 209 209 211
324 331 332 333 334 334 336 338 339 340 339 340 339 342 349 0 13 11 18 36 50 44 49 50 49 52 55 62 81 129 167 184 195 201 204 205 208 208 208 211 214 216 217 217 220 222 222 222 216 211 209 209 209 208
328 329 331 331 334 335 335 337 338 340 341 339 339 344 349 3 16 14 31 35 46 50 57 60 66 66 63 63 66 78 103 148 177 191 198 202 205 206 206 208 213 217 219 218 217 218 219 219 218 212 208 211 210 210
328 329 328 331 333 334 335 337 337 340 341 341 348 353 357 9 24 31 46 44 54 60 70 64 67 69 72 71 67 68 81 106 139 169 186 196 201 204 205 207 210 213 217 218 217 219 218 217 216 213 208 209 209 210
325 327 328 331 332 333 335 335 336 338 337 344 353 1 11 17 33 63 54 49 64 74 80 76 76 79 79 74 71 69 73 78 107 143 165 182 196 205 207 208 210 211 214 217 217 218 217 217 216 214 212 211 211 211
324 326 327 331 332 333 335 332 333 334 336 348 10 17 27 38 47 60 68 80 92 86 90 85 79 82 84 79 71 72 72 71 73 90 121 157 186 200 208 209 212 213 214 214 215 216 215 216 215 215 214 214 210 213
325 325 327 330 332 335 335 333 333 332 335 348 21 37 43 41 39 41 70 109 103 91 89 96 88 83 87 79 71 75 79 81 82 84 86 96 143 175 205 211 216 218 219 217 213 211 212 213 213 213 214 216 213 214
323 325 328 330 334 337 336 337 334 337 342 0 41 58 62 34 28 46 80 118 114 103 98 107 93 87 83 86 86 89 93 97 99 97 94 90 98 127 176 211 219 221 223 223 221 217 215 210 211 214 214 214 215 216
323 325 328 332 337 338 339 342 341 336 346 7 77 60 70 57 39 32 60 137 131 132 152 125 111 111 103 104 106 110 108 106 97 101 102 99 96 100 107 149 211 223 226 226 223 221 219 215 210 210 212 216 217 218
323 327 330 333 336 340 344 348 342 332 316 336 314 144 124 105 79 58 55 76 149 157 207 175 134 124 124 115 127 126 121 117 112 109 106 102 98 99 95 100 139 203 210 214 219 220 219 217 213 210 209 211 216 219
325 328 331 333 336 340 343 351 331 325 297 281 267 240 249 93 44 44 92 168 250 253 234 231 178 154 147 138 138 141 135 133 125 125 128 126 114 104 100 91 83 107 161 184 189 199 208 213 214 211 207 209 214 218
328 328 330 333 336 337 341 351 330 310 294 262 255 222 260 235 212 247 261 216 242 280 265 248 224 193 175 168 167 167 160 142 153 143 144 151 130 120 116 109 100 89 95 118 154 177 188 198 204 206 208 208 212 216
328 329 332 336 336 336 340 340 333 320 276 269 283 263 259 241 248 252 262 249 236 231 240 265 262 256 243 227 201 191 186 180 179 171 166 172 154 141 131 124 119 120 120 120 116 136 162 182 191 197 203 208 212 215
328 331 337 340 338 341 347 344 341 335 305 292 279 272 280 267 254 256 261 260 245 248 242 237 251 260 257 248 228 210 199 192 195 202 203 193 173 166 161 154 148 147 144 136 133 136 137 160 175 186 196 204 210 214
330 334 340 343 349 356 351 348 345 339 332 319 307 295 289 280 279 273 270 263 260 260 254 250 249 252 251 240 238 233 223 214 221 221 216 215 205 190 175 181 163 169 160 157 160 159 158 166 173 184 179 195 202 211
335 337 341 344 348 352 356 358 354 346 342 343 337 325 317 313 311 299 288 280 277 275 270 263 262 261 259 256 253 251 243 237 232 230 228 221 212 215 200 197 189 175 172 179 178 177 173 171 177 179 183 194 200 200
340 347 352 359 3 1 358 359 357 358 358 354 346 342 340 331 327 323 316 314 305 296 285 280 277 272 268 271 267 263 258 256 251 248 242 226 217 216 212 214 212 196 189 191 190 189 182 182 184 185 188 192 195 199
354 357 359 6 11 14 15 10 6 4 2 0 359 356 352 348 342 337 333 328 323 313 304 293 288 282 279 278 276 272 263 255 254 254 252 248 240 235 230 222 217 216 212 207 199 195 195 197 194 195 197 198 199 202
2 3 4 8 12 15 13 11 7 6 5 2 357 353 350 349 348 344 339 334 331 327 322 316 310 305 299 292 283 278 277 275 267 260 253 251 250 248 245 241 235 230 224 218 217 213 209 204 209 208 207 206 206 208
352 355 357 359 1 6 9 9 6 5 1 357 356 357 357 356 354 350 344 337 333 332 332 330 328 321 311 302 294 287 284 275 270 269 263 258 253 248 247 246 247 247 241 232 224 222 219 217 219 215 215 219 217 216
351 353 355 355 356 358 359 0 3 3 3 360 356 352 350 351 349 345 342 340 340 337 335 335 336 333 330 326 320 315 307 291 276 273 268 262 256 251 249 245 243 245 247 243 239 236 232 229 227 225 228 229 230 230
348 350 350 349 353 357 358 358 358 358 357 355 352 350 347 345 344 342 341 340 340 341 340 340 339 335 333 331 324 318 312 306 298 282 269 264 263 260 255 252 250 247 244 244 243 242 242 240 240 237 235 234 232 232
342 346 344 344 347 350 353 355 358 356 355 353 350 348 346 343 341 340 341 342 342 341 341 340 337 333 328 326 323 316 310 305 301 297 292 280 266 261 262 261 258 253 250 247 245 244 243 243 243 243 242 242 243 243
335 339 340 342 345 347 351 356 357 355 354 351 350 348 347 345 344 345 344 344 343 341 342 339 334 331 329 326 322 317 312 302 292 289 288 288 283 274 263 260 262 263 260 255 251 249 248 247 246 245 244 245 245 245
334 337 339 341 345 348 354 354 353 354 354 354 350 348 346 345 345 346 344 342 340 339 338 337 335 334 331 325 320 317 313 307 299 292 287 284 282 281 278 272 265 262 263 263 261 257 254 251 250 249 249 248 247 247
336 338 342 345 348 352 350 349 352 353 354 355 354 350 346 343 342 341 340 340 340 339 338 338 336 332 329 327 327 325 322 317 312 308 303 297 291 285 280 279 280 278 272 265 262 261 261 260 258 256 254 253 253 252
343 344 348 352 354 353 352 352 352 352 351 351 351 351 347 345 342 341 340 341 342 341 340 338 337 337 335 333 330 329 329 326 320 321 320 315 306 295 285 280 277 277 277 276 272 267 262 261 261 261 261 260 258 257
353 356 358 359 358 355 353 352 352 351 350 350 352 353 351 349 346 345 345 344 343 342 341 340 339 338 336 338 336 331 337 334 332 328 325 321 317 313 306 298 289 281 276 273 274 276 275 272 268 264 261 260 260 260
354 359 360 357 353 352 352 351 352 351 352 352 354 356 353 352 350 349 348 348 346 344 342 341 340 341 339 339 339 336 336 338 337 335 333 329 325 322 317 312 307 300 291 284 278 273 271 271 270 271 271 270 269 267
348 352 354 354 351 349 349 353 352 352 351 350 353 354 351 350 352 350 348 347 344 343 342 342 341 341 340 340 341 342 340 339 339 338 336 332 328 324 320 315 311 307 303 296 291 286 282 279 276 273 271 271 270 270
341 344 349 349 346 347 350 351 349 350 348 348 351 350 352 350 349 346 345 345 344 344 342 342 343 344 345 345 344 344 344 344 342 342 341 339 335 330 325 319 314 311 309 305 301 295 291 287 284 282 280 278 276 274
336 337 338 338 342 348 351 350 349 350 347 345 348 349 349 349 347 345 346 345 345 344 344 346 346 347 347 347 348 347 346 346 347 345 345 344 342 338 334 331 330 327 319 310 306 303 299 294 288 282 280 278 276 274
Height
10667 10654 10641 10626 10611 10593 10576 10559 10539 10521 10503 10488 10476 10467 10457 10448 10438 10428 10417 10406 10396 10386 10378 10371 10364 10359 10357 10357 10359 10363 10368 10374 10384 10395 10409 10423 10445 10465 10485 10508 10528 10548 10566 10584 10600 10615 10629 10640 10667 10680 10688 10711 10730 10744
10659 10647 10633 10618 10602 10584 10569 10552 10531 10514 10499 10486 10476 10466 10458 10449 10441 10435 10424 10413 10404 10394 10387 10379 10371 10366 10362 10361 10362 10364 10368 10373 10381 10389 10400 10417 10431 10453 10466 10492 10514 10539 10556 10565 10579 10601 10616 10622 10645 10665 10684 10705 10718 10733
10652 10640 10626 10611 10593 10576 10560 10543 10525 10508 10494 10483 10475 10467 10460 10452 10443 10439 10430 10422 10411 10404 10396 10389 10381 10375 10370 10368 10368 10369 10371 10375 10381 10388 10397 10408 10420 10442 10460 10480 10498 10517 10534 10550 10569 10593 10603 10617 10632 10652 10669 10689 10704 10720
10643 10631 10617 10602 10585 10569 10552 10535 10519 10505 10492 10482 10474 10466 10460 10453 10448 10442 10436 10430 10421 10414 10407 10399 10392 10386 10383 10379 10377 10377 10377 10379 10384 10390 10397 10406 10417 10432 10448 10465 10486 10505 10520 10541 10557 10566 10578 10601 10618 10638 10659 10675 10689 10701
10634 10622 10608 10594 10578 10562 10545 10527 10512 10500 10490 10482 10474 10467 10461 10455 10451 10446 10443 10438 10431 10424 10418 10412 10405 10399 10394 10390 10388 10387 10386 10387 10389 10393 10399 10407 10417 10426 10439 10453 10466 10483 10502 10517 10538 10549 10563 10578 10594 10613 10634 10650 10664 10676
10625 10613 10599 10587 10572 10555 10538 10522 10509 10499 10489 10481 10474 10468 10462 10456 10453 10449 10447 10444 10440 10434 10429 10423 10417 10412 10407 10405 10402 10399 10397 10396 10397 10399 10404 10411 10418 10426 10438 10447 10458 10472 10485 10502 10525 10529 10546 10567 10584 10603 10620 10634 10648 10669
10617 10603 10591 10579 10565 10548 10532 10515 10505 10496 10489 10482 10476 10471 10464 10461 10458 10455 10452 10451 10448 10443 10438 10433 10429 10423 10417 10416 10415 10412 10410 10410 10410 10410 10412 10416 10422 10428 10433 10438 10448 10458 10470 10483 10498 10510 10536 10552 10568 10581 10598 10616 10639 10654
10607 10594 10582 10569 10555 10539 10523 10512 10502 10494 10488 10483 10478 10474 10470 10467 10464 10462 10459 10457 10454 10451 10447 10444 10439 10435 10430 10428 10428 10425 10424 10422 10420 10418 10419 10420 10422 10425 10428 10434 10439 10447 10452 10458 10473 10496 10510 10522 10544 10568 10587 10602 10622 10636
10598 10584 10572 10559 10543 10528 10517 10506 10497 10492 10488 10484 10480 10478 10477 10473 10469 10467 10464 10462 10460 10458 10454 10452 10447 10446 10441 10439 10439 10438 10437 10435 10431 10429 10429 10429 10427 10424 10425 10429 10433 10437 10440 10453 10473 10492 10499 10521 10540 10559 10573 10589 10605 10621
10590 10576 10562 10549 10535 10521 10509 10501 10494 10491 10488 10485 10483 10481 10479 10477 10474 10471 10469 10466 10464 10463 10459 10457 10453 10450 10446 10446 10446 10445 10443 10443 10441 10437 10435 10433 10429 10426 10427 10427 10427 10430 10434 10443 10457 10475 10494 10509 10529 10545 10564 10579 10594 10608
10582 10569 10555 10541 10528 10516 10507 10500 10494 10492 10489 10487 10485 10483 10481 10480 10478 10476 10473 10473 10471 10469 10464 10462 10459 10456 10455 10452 10449 10448 10447 10447 10445 10442 10441 10439 10437 10433 10431 10428 10426 10426 10430 10436 10446 10461 10477 10494 10514 10533 10551 10570 10582 10591
10574 10562 10549 10534 10525 10515 10507 10499 10495 10491 10490 10489 10486 10484 10482 10479 10478 10477 10476 10475 10473 10473 10469 10466 10462 10460 10459 10457 10455 10453 10451 10450 10450 10447 10445 10445 10440 10437 10437 10435 10433 10429 10429 10433 10441 10451 10464 10482 10503 10523 10542 10557 10568 10578
10567 10554 10541 10531 10520 10513 10506 10500 10495 10491 10489 10486 10485 10483 10482 10478 10477 10475 10475 10474 10473 10471 10471 10470 10466 10465 10461 10460 10459 10457 10455 10453 10452 10449 10450 10449 10444 10443 10443 10441 10440 10440 10438 10437 10440 10449 10457 10469 10488 10510 10527 10542 10552 10564
10560 10548 10536 10525 10516 10510 10503 10498 10495 10492 10488 10486 10484 10482 10479 10476 10474 10472 10471 10471 10470 10470 10468 10467 10466 10464 10462 10459 10458 10457 10455 10453 10453 10451 10450 10450 10449 10446 10448 10447 10448 10446 10446 10447 10449 10453 10459 10470 10483 10498 10515 10529 10539 10553
10552 10543 10533 10524 10514 10507 10501 10496 10492 10489 10486 10483 10480 10478 10476 10473 10471 10469 10466 10465 10465 10463 10463 10463 10461 10460 10459 10457 10454 10453 10453 10451 10449 10449 10449 10450 10450 10447 10448 10448 10448 10450 10450 10453 10455 10459 10464 10471 10479 10489 10498 10513 10526 10538
10545 10537 10530 10524 10516 10507 10500 10494 10490 10486 10482 10479 10476 10473 10471 10469 10467 10465 10462 10459 10457 10455 10454 10455 10453 10452 10450 10449 10448 10447 10446 10445 10444 10444 10443 10444 10446 10447 10447 10446 10445 10447 10449 10454 10456 10459 10461 10467 10474 10481 10492 10499 10506 10517
10541 10532 10526 10521 10514 10506 10500 10495 10490 10485 10481 10477 10474 10471 10468 10465 10462 10459 10455 10452 10450 10447 10446 10445 10443 10442 10441 10439 10438 10438 10437 10436 10435 10434 10434 10435 10437 10439 10444 10445 10444 10444 10445 10445 10447 10451 10453 10457 10467 10473 10480 10488 10497 10505
10537 10530 10525 10518 10511 10505 10499 10494 10490 10485 10480 10476 10473 10469 10466 10462 10458 10454 10451 10447 10443 10440 10438 10436 10433 10430 10429 10428 10427 10426 10426 10425 10425 10425 10426 10427 10428 10430 10432 10436 10440 10444 10441 10442 10444 10446 10447 10450 10453 10458 10466 10472 10476 10482
10536 10531 10525 10519 10513 10507 10501 10496 10491 10485 10480 10475 10470 10466 10462 10458 10454 10449 10445 10441 10438 10435 10432 10429 10425 10422 10418 10416 10413 10411 10410 10410 10409 10410 10412 10414 10417 10420 10422 10423 10425 10429 10435 10438 10436 10437 10440 10443 10443 10447 10449 10453 10457 10461
10537 10531 10526 10520 10514 10509 10503 10498 10492 10487 10481 10476 10471 10466 10461 10456 10450 10445 10441 10437 10434 10431 10427 10422 10418 10413 10409 10406 10403 10400 10397 10395 10394 10393 10393 10396 10399 10401 10405 10408 10410 10412 10415 10420 10426 10431 10432 10431 10434 10437 10438 10440 10443 10448
10537 10532 10526 10521 10515 10510 10504 10498 10492 10487 10481 10476 10471 10466 10460 10455 10449 10444 10439 10434 10428 10424 10419 10414 10410 10405 10400 10397 10393 10390 10387 10383 10379 10378 10378 10378 10378 10381 10385 10389 10392 10396 10399 10402 10405 10408 10414 10418 10422 10423 10424 10428 10431 10434
10536 10531 10525 10520 10514 10509 10504 10498 10492 10486 10481 10475 10470 10464 10459 10454 10449 10443 10437 10432 10426 10419 10413 10407 10401 10396 10391 10387 10382 10378 10375 10372 10369 10365 10363 10363 10364 10365 10366 10367 10371 10374 10377 10382 10387 10390 10393 10398 10402 10407 10410 10415 10418 10420
10535 10529 10523 10518 10513 10507 10502 10496 10490 10484 10479 10474 10468 10462 10457 10451 10445 10439 10434 10428 10421 10415 10409 10401 10395 10389 10384 10379 10374 10368 10364 10360 10357 10355 10353 10351 10349 10349 10350 10350 10351 10353 10355 10358 10361 10365 10370 10375 10379 10383 10386 10390 10393 10396
10532 10527 10521 10516 10511 10506 10500 10494 10488 10483 10476 10470 10464 10458 10452 10447 10441 10435 10428 10423 10417 10411 10404 10397 10392 10386 10380 10374 10368 10362 10356 10349 10345 10342 10340 10339 10337 10335 10334 10333 10334 10334 10336 10338 10340 10342 10345 10348 10352 10356 10360 10364 10368 10370
10530 10525 10519 10514 10509 10504 10499 10492 10486 10480 10474 10467 10460 10454 10448 10441 10435 10429 10422 10416 10410 10404 10398 10392 10386 10379 10372 10367 10360 10353 10347 10342 10337 10332 10328 10325 10323 10322 10321 10319 10317 10315 10316 10317 10319 10321 10323 10325 10328 10331 10334 10336 10339 10342
10527 10522 10517 10512 10507 10502 10497 10491 10485 10479 10472 10464 10456 10448 10441 10435 10429 10423 10417 10411 10404 10398 10391 10384 10377 10370 10364 10356 10350 10343 10337 10332 10327 10322 10318 10314 10310 10307 10305 10304 10303 10301 10300 10299 10299 10301 10303 10305 10307 10309 10312 10314 10317 10320
10524 10519 10515 10511 10506 10501 10496 10490 10484 10477 10470 10462 10454 10446 10438 10432 10426 10420 10413 10406 10398 10391 10383 10375 10368 10361 10353 10346 10339 10332 10325 10319 10316 10311 10307 10304 10300 10296 10293 10290 10287 10286 10285 10286 10285 10285 10285 10285 10286 10288 10290 10292 10294 10296
10522 10517 10514 10510 10506 10501 10495 10489 10482 10475 10468 10460 10452 10444 10435 10429 10422 10415 10409 10401 10393 10384 10376 10368 10360 10351 10343 10336 10328 10324 10320 10314 10306 10300 10296 10291 10289 10286 10282 10279 10276 10273 10270 10269 10269 10270 10271 10271 10271 10271 10272 10273 10274 10275
10519 10516 10513 10509 10504 10500 10494 10488 10481 10473 10465 10458 10450 10441 10433 10426 10419 10412 10404 10396 10387 10378 10370 10362 10353 10345 10336 10331 10322 10310 10306 10303 10298 10292 10287 10283 10278 10274 10270 10268 10266 10264 10261 10259 10257 10255 10255 10254 10255 10255 10256 10257 10257 10258
10517 10514 10511 10507 10504 10499 10494 10488 10480 10472 10464 10455 10445 10436 10429 10422 10414 10407 10399 10389 10381 10372 10362 10353 10344 10337 10328 10322 10316 10309 10301 10295 10289 10284 10280 10275 10269 10265 10261 10257 10255 10252 10250 10248 10247 10245 10244 10243 10242 10241 10241 10241 10241 10242
10516 10514 10510 10506 10502 10497 10491 10484 10477 10469 10461 10451 10442 10433 10424 10416 10407 10398 10390 10383 10374 10365 10357 10349 10341 10331 10322 10314 10308 10302 10295 10289 10283 10278 10273 10268 10263 10258 10254 10249 10246 10243 10241 10239 10237 10235 10234 10233 10232 10231 10231 10230 10230 10230
10516 10513 10509 10505 10500 10494 10487 10480 10473 10465 10457 10448 10440 10431 10421 10410 10402 10396 10388 10380 10370 10361 10351 10341 10333 10325 10317 10310 10302 10294 10288 10283 10278 10272 10267 10262 10257 10252 10248 10244 10240 10236 10233 10230 10228 10226 10225 10224 10223 10222 10221 10221 10220 10220
10514 10511 10507 10502 10497 10491 10485 10477 10469 10461 10452 10443 10435 10427 10419 10410 10402 10394 10384 10374 10365 10356 10346 10337 10329 10321 10313 10305 10298 10291 10285 10280 10274 10267 10262 10257 10253 10248 10243 10239 10235 10232 10229 10226 10223 10221 10219 10218 10217 10216 10215 10215 10214 10214